Date,TemperatureHighF,TemperatureAvgF,TemperatureLowF,DewpointHighF,DewpointAvgF,DewpointLowF,HumidityHigh,HumidityAvg,HumidityLow,PressureMaxIn,PressureMinIn,WindSpeedMaxMPH,WindSpeedAvgMPH,GustSpeedMaxMPH,PrecipitationSumIn
2013-1-1,28.5,19.9,14.7,19.3,12.1,6.7,76,72,67,0.00,0.00,0,0,0,0.00
2013-1-2,24.0,18.0,11.3,15.5,10.0,3.0,75,71,67,0.00,0.00,0,0,0,0.00
2013-1-3,23.7,13.8,8.7,15.0,5.8,1.0,71,70,68,0.00,0.00,0,0,0,0.00
2013-1-4,24.2,13.4,5.7,15.8,5.6,-2.0,73,71,70,0.00,0.00,0,0,0,0.00
2013-1-5,26.2,15.8,7.7,17.6,8.1,0.2,73,71,69,0.00,0.00,0,0,0,0.00
2013-1-6,33.4,24.6,19.7,23.2,16.5,12.5,74,71,66,0.00,0.00,0,0,0,0.00
2013-1-7,25.5,21.0,15.4,19.2,13.9,7.6,77,74,70,0.00,0.00,0,0,0,0.00
2013-1-8,33.6,29.2,24.9,27.4,23.3,19.0,80,78,77,0.00,0.00,0,0,0,0.00
2013-1-9,37.4,32.6,29.1,31.4,27.2,23.5,82,80,79,0.00,0.00,0,0,0,0.00
2013-1-10,35.2,31.6,24.9,29.3,26.0,18.9,83,80,75,0.00,0.00,0,0,0,0.00
2013-1-11,32.0,24.1,14.1,21.9,16.1,4.8,79,72,62,0.00,0.00,22,0,22,0.00
2013-1-12,22.4,10.8,1.5,11.8,1.8,-6.9,70,66,63,0.00,0.00,0,0,0,0.00
2013-1-13,19.5,7.9,-0.2,8.9,-1.2,-9.0,69,66,63,0.00,0.00,0,0,0,0.00
2013-1-14,19.5,11.4,3.5,10.2,2.8,-5.3,71,68,65,0.00,0.00,0,0,0,0.00
2013-1-15,30.7,21.2,15.0,20.3,12.5,6.3,73,69,64,0.00,0.00,0,0,0,0.00
2013-1-16,27.3,14.3,5.9,18.1,5.8,-2.4,72,69,67,0.00,0.00,0,0,0,0.00
2013-1-17,26.7,14.0,5.7,17.2,5.6,-2.3,72,69,66,0.00,0.00,0,0,0,0.00
2013-1-18,26.6,13.4,4.2,17.4,5.0,-4.0,73,69,67,0.00,0.00,0,0,0,0.00
2013-1-19,28.9,13.7,5.3,19.5,5.3,-2.7,73,69,66,0.00,0.00,0,0,0,0.00
2013-1-20,29.1,14.6,5.0,19.3,5.8,-3.3,72,68,65,0.00,0.00,0,0,0,0.00
2013-1-21,30.0,15.2,6.0,20.6,6.6,-2.3,72,68,66,0.00,0.00,0,0,0,0.00
2013-1-22,31.6,16.2,5.5,21.9,7.5,-2.8,73,68,66,0.00,0.00,0,0,0,0.00
2013-1-23,29.8,19.1,9.6,20.5,10.8,1.4,73,70,68,0.00,0.00,0,0,0,0.00
2013-1-24,39.7,32.4,27.3,32.7,25.8,19.7,80,77,73,0.00,0.00,0,0,0,0.00
2013-1-25,39.5,35.6,33.6,34.3,30.4,28.0,83,81,80,0.00,0.00,0,0,0,0.00
2013-1-26,43.5,37.0,34.3,38.3,32.1,29.6,85,82,81,0.00,0.00,0,0,0,0.00
2013-1-27,39.0,34.0,27.3,30.2,27.0,19.4,82,76,66,0.00,0.00,7,0,7,0.00
2013-1-28,36.1,28.9,23.5,27.3,21.7,16.4,78,74,69,0.00,0.00,0,0,0,0.00
2013-1-29,43.3,34.0,28.7,36.2,27.8,23.2,80,78,73,0.00,0.00,0,0,0,0.00
2013-1-30,40.8,35.1,32.3,34.4,29.5,27.0,82,80,77,0.00,0.00,0,0,0,0.00
2013-1-31,39.7,35.6,33.6,34.2,30.4,28.6,83,81,79,0.00,0.00,0,0,0,0.00
2013-2-1,44.9,36.3,30.5,37.4,30.7,24.5,84,80,75,0.00,0.00,0,0,0,0.00
2013-2-2,42.6,30.9,24.6,33.4,24.3,19.0,81,76,69,0.00,0.00,0,0,0,0.00
2013-2-3,44.2,32.7,27.3,33.6,25.3,20.6,80,74,66,0.00,0.00,0,0,0,0.00
2013-2-4,44.9,34.4,28.0,34.2,26.5,21.7,79,73,65,0.00,0.00,0,0,0,0.00
2013-2-5,44.4,36.1,30.3,34.3,28.3,24.0,78,73,67,0.00,0.00,0,0,0,0.00
2013-2-6,44.2,33.8,28.5,33.2,25.9,19.9,79,73,63,0.00,0.00,0,0,0,0.00
2013-2-7,38.4,31.1,25.3,28.0,22.7,18.3,76,71,66,0.00,0.00,0,0,0,0.00
2013-2-8,44.2,34.4,28.2,29.0,23.6,20.1,76,65,53,0.00,0.00,7,0,7,0.00
2013-2-9,42.9,35.0,30.3,24.6,20.2,16.8,58,55,46,0.00,0.00,7,1,7,0.00
2013-2-10,45.1,34.2,27.6,23.8,18.5,14.2,61,53,43,0.00,0.00,4,0,4,0.00
2013-2-11,40.6,28.2,19.2,22.9,15.0,8.2,64,58,48,0.00,0.00,0,0,0,0.00
2013-2-12,43.8,32.5,24.0,29.2,21.1,13.9,69,63,56,0.00,0.00,0,0,0,0.00
2013-2-13,47.1,37.3,32.5,33.4,26.8,23.9,72,66,57,0.00,0.00,3,0,3,0.00
2013-2-14,46.0,33.9,25.5,31.1,23.5,17.6,74,66,55,0.00,0.00,0,0,0,0.00
2013-2-15,46.5,32.2,24.4,31.2,22.1,16.1,73,67,55,0.00,0.00,0,0,0,0.00
2013-2-16,48.7,35.0,25.3,35.0,25.2,17.5,75,68,58,0.00,0.00,2,0,2,0.00
2013-2-17,44.9,35.4,28.7,29.3,25.0,18.4,76,66,53,0.00,0.00,6,0,6,0.00
2013-2-18,41.1,30.8,22.2,25.9,19.4,13.8,70,63,54,0.00,0.00,0,0,0,0.00
2013-2-19,41.7,33.8,28.5,32.1,24.3,17.9,73,68,61,0.00,0.00,0,0,0,0.00
2013-2-20,43.8,32.5,24.0,27.3,20.8,15.1,76,63,49,0.00,0.00,7,0,7,0.00
2013-2-21,40.2,30.2,20.1,23.5,17.1,9.4,67,58,50,0.00,0.00,5,0,5,0.00
2013-2-22,40.8,33.8,29.6,31.2,25.5,20.7,76,71,67,0.00,0.00,0,0,0,0.00
2013-2-23,33.9,33.7,33.4,27.4,27.0,26.7,78,77,76,0.00,0.00,5,0,5,0.00
2013-3-1,38.4,36.1,33.4,30.8,28.9,27.2,78,75,74,0.00,0.00,0,0,0,0.00
2013-3-2,51.4,39.5,31.8,40.0,31.5,25.4,80,73,65,0.00,0.00,0,0,0,0.00
2013-3-3,48.5,38.9,30.7,34.4,26.5,14.5,80,63,43,0.00,0.00,5,0,5,0.00
2013-3-4,47.4,32.0,21.5,23.6,16.2,10.1,63,53,39,0.00,0.00,1,0,1,0.00
2013-3-5,48.5,33.9,23.1,28.3,19.3,12.0,63,55,44,0.00,0.00,0,0,0,0.00
2013-3-6,43.7,36.6,32.9,35.4,27.7,21.7,76,70,60,0.00,0.00,9,0,9,0.00
2013-3-7,49.2,36.9,28.2,31.9,26.1,20.7,78,66,51,0.00,0.00,0,0,0,0.00
2013-3-8,53.7,36.9,25.8,31.7,22.8,16.7,70,58,42,0.00,0.00,4,0,4,0.00
2013-3-9,53.2,39.6,29.1,28.1,22.2,16.9,63,50,38,0.00,0.00,6,0,6,0.00
2013-3-10,52.1,38.5,26.9,30.2,22.7,16.1,66,54,42,0.00,0.00,0,0,0,0.00
2013-3-11,54.8,43.3,35.2,36.4,28.5,23.6,64,56,48,0.00,0.00,4,0,4,0.00
2013-3-12,56.3,41.8,31.8,38.8,29.4,22.2,70,62,52,0.00,0.00,0,0,0,0.00
2013-3-13,60.9,45.3,35.2,43.2,32.9,26.2,74,62,50,0.00,0.00,0,0,0,0.00
2013-3-14,57.7,43.3,32.5,41.1,31.1,23.1,72,62,54,0.00,0.00,0,0,0,0.00
2013-3-15,60.8,45.5,35.9,40.2,31.9,26.7,72,60,46,0.00,0.00,2,0,2,0.00
2013-3-16,56.8,41.6,30.3,37.1,28.9,21.0,74,61,46,0.00,0.00,3,0,3,0.00
2013-3-17,43.5,37.2,31.6,31.9,25.4,19.3,73,63,47,0.00,0.00,9,1,9,0.00
2013-3-18,46.0,35.1,29.3,28.3,22.6,18.5,70,61,48,0.00,0.00,4,0,4,0.00
2013-3-19,51.9,37.3,24.6,27.8,21.7,14.7,67,54,38,0.00,0.00,4,0,4,0.00
2013-3-20,46.2,41.3,37.2,40.1,32.3,24.3,78,71,51,0.00,0.00,6,0,6,0.00
2013-3-21,43.3,36.4,32.5,31.8,25.6,23.0,76,65,50,0.00,0.00,5,0,5,0.00
2013-3-22,41.5,33.4,29.6,27.3,22.7,18.1,73,65,55,0.00,0.00,7,0,7,0.00
2013-3-23,45.3,31.5,21.2,24.8,16.9,11.3,66,56,41,0.00,0.00,5,0,5,0.00
2013-3-24,48.9,33.9,22.1,24.7,17.5,11.1,63,52,38,0.00,0.00,0,0,0,0.00
2013-3-25,55.0,38.9,27.6,30.2,21.8,15.3,62,51,38,0.00,0.00,0,0,0,0.00
2013-3-26,58.6,43.7,34.8,39.5,29.4,22.8,64,57,49,0.00,0.00,2,0,2,0.00
2013-3-27,59.5,44.3,34.3,41.7,31.5,24.0,72,61,50,0.00,0.00,0,0,0,0.00
2013-3-28,66.0,48.2,34.8,43.9,33.4,25.5,72,58,42,0.00,0.00,3,0,3,0.00
2013-3-29,66.3,51.5,41.5,44.8,35.9,30.9,70,56,43,0.00,0.00,3,0,3,0.00
2013-3-30,71.2,50.2,35.7,43.3,33.4,26.0,71,55,35,0.00,0.00,0,0,0,0.00
2013-3-31,74.3,50.0,32.7,41.0,29.7,21.2,65,48,29,0.00,0.00,0,0,0,0.00
2013-4-1,67.8,50.0,34.3,45.2,32.3,20.8,62,51,44,0.00,0.00,5,0,5,0.00
2013-4-2,72.8,52.0,36.6,47.1,35.5,26.3,70,55,39,0.00,0.00,4,0,4,0.00
2013-4-3,72.6,52.0,36.6,46.6,35.2,25.8,70,54,39,0.00,0.00,5,0,5,0.00
2013-4-4,57.9,48.9,41.3,44.7,36.8,29.9,73,63,54,0.00,0.00,0,0,0,0.00
2013-4-5,59.5,49.8,44.4,43.4,39.1,32.5,79,67,51,0.00,0.00,5,0,5,0.00
2013-4-6,53.9,46.6,42.9,44.0,37.7,32.6,77,71,64,0.00,0.00,2,0,2,0.00
2013-4-7,53.6,45.9,40.8,44.4,37.9,31.4,81,74,64,0.00,0.00,6,0,6,0.00
2013-4-8,55.2,43.4,32.5,36.3,30.0,25.1,77,60,45,0.00,0.00,13,1,13,0.00
2013-4-9,63.1,47.8,37.2,34.1,26.9,21.9,54,45,33,0.00,0.00,13,2,13,0.00
2013-4-10,54.3,44.1,33.6,38.9,29.5,21.1,67,57,45,0.00,0.00,4,0,4,0.00
2013-4-11,64.5,46.7,33.0,40.3,31.3,24.3,74,57,39,0.00,0.00,8,0,8,0.00
2013-4-12,65.6,47.4,30.7,36.2,27.6,18.8,65,48,32,0.00,0.00,2,0,2,0.00
2013-4-13,55.2,47.3,36.3,34.8,27.2,16.5,69,47,32,0.00,0.00,16,1,16,0.00
2013-4-14,51.8,39.1,28.0,27.5,20.6,14.3,59,48,38,0.00,0.00,7,0,7,0.00
2013-4-15,48.3,39.0,32.3,30.0,25.2,20.4,67,58,49,0.00,0.00,4,0,4,0.00
2013-4-16,57.0,42.1,33.8,30.5,25.0,17.6,72,53,34,0.00,0.00,9,0,9,0.00
2013-4-17,57.5,42.9,31.2,25.4,18.1,14.2,50,38,27,0.00,0.00,9,0,9,0.00
2013-4-18,62.7,43.8,27.6,33.0,21.0,10.8,52,41,32,0.00,0.00,5,0,5,0.00
2013-4-19,49.6,44.4,39.9,40.6,32.7,23.7,73,64,47,0.00,0.00,0,0,0,0.00
2013-4-20,61.8,50.1,43.5,42.1,37.5,30.3,77,63,45,0.00,0.00,7,0,7,0.00
2013-4-21,62.2,47.4,33.9,40.1,32.0,24.2,72,56,40,0.00,0.00,8,0,8,0.00
2013-4-22,58.8,46.9,38.3,30.2,26.3,19.5,59,46,31,0.00,0.00,7,0,7,0.00
2013-4-23,57.5,43.5,28.9,29.7,21.8,14.0,58,43,32,0.00,0.00,0,0,0,0.00
2013-4-24,68.7,46.9,28.9,36.6,25.3,15.5,60,44,28,0.00,0.00,6,0,6,0.00
2013-4-25,73.2,50.9,32.7,39.9,29.0,19.4,62,44,28,0.00,0.00,5,0,5,0.00
2013-4-26,78.0,55.3,35.9,47.4,33.8,22.9,64,46,31,0.00,0.00,6,0,6,0.00
2013-4-27,79.1,57.8,40.1,46.8,36.0,27.3,65,46,29,0.00,0.00,7,0,7,0.00
2013-4-28,74.4,57.7,45.5,43.3,35.7,30.3,61,45,32,0.00,0.00,6,0,6,0.00
2013-4-29,68.1,51.8,42.6,45.1,32.5,19.4,65,49,35,0.00,0.00,7,0,7,0.00
2013-4-30,58.2,43.7,31.1,28.5,21.7,15.8,56,42,30,0.00,0.00,7,0,7,0.00
2013-5-1,66.9,46.6,28.9,31.3,21.6,13.4,55,39,26,0.00,0.00,4,0,4,0.00
2013-5-2,74.3,52.4,30.5,36.6,26.6,15.1,56,39,25,0.00,0.00,1,0,1,0.00
2013-5-3,74.1,54.4,37.9,42.0,30.7,22.4,57,42,30,0.00,0.00,7,0,7,0.00
2013-5-4,74.1,57.7,43.1,41.5,33.6,26.8,59,41,30,0.00,0.00,3,0,3,0.00
2013-5-5,83.1,57.7,39.0,47.2,35.5,25.2,63,45,27,0.00,0.00,0,0,0,0.00
2013-5-6,87.9,58.3,41.3,52.2,39.3,28.5,65,51,27,0.00,0.00,7,0,7,0.00
2013-5-7,79.7,58.7,44.0,52.3,44.2,33.7,70,60,38,0.00,0.00,6,0,6,0.00
2013-5-8,82.7,60.4,45.6,55.4,45.8,37.1,78,60,38,0.00,0.00,4,0,4,0.00
2013-5-9,86.7,61.3,45.8,56.9,46.3,36.0,72,59,36,0.00,0.00,4,0,4,0.00
2013-5-10,89.2,62.2,44.7,55.8,45.7,35.1,73,57,29,0.00,0.00,6,0,6,0.00
2013-5-11,85.8,63.1,45.8,56.4,45.0,35.6,70,54,33,0.00,0.00,1,0,1,0.00
2013-5-12,88.5,67.1,50.5,55.9,46.9,38.3,66,50,32,0.00,0.00,3,0,3,0.00
2013-5-13,90.5,72.1,51.0,56.3,48.5,38.8,68,46,27,0.00,0.00,6,0,6,0.00
2013-5-14,84.7,65.6,50.7,52.3,42.8,35.8,63,45,31,0.00,0.00,3,0,3,0.00
2013-5-15,82.9,62.4,45.1,50.0,40.5,32.1,62,46,30,0.00,0.00,4,0,4,0.00
2013-5-16,71.4,60.8,53.6,48.0,42.6,39.3,65,52,42,0.00,0.00,0,0,0,0.00
2013-5-17,61.8,55.8,50.7,47.5,43.3,38.8,70,63,50,0.00,0.00,0,0,0,0.00
2013-5-18,73.7,55.5,43.8,48.6,40.5,34.1,77,59,39,0.00,0.00,4,0,4,0.00
2013-5-19,65.1,54.8,43.1,44.5,37.7,32.2,69,54,42,0.00,0.00,5,0,5,0.00
2013-5-20,82.0,60.9,41.5,51.1,40.7,29.6,68,49,32,0.00,0.00,2,0,2,0.00
2013-5-21,77.1,59.7,42.6,50.5,39.3,30.8,66,49,33,0.00,0.00,5,0,5,0.00
2013-5-22,59.5,49.5,39.0,35.2,29.4,20.3,55,47,32,0.00,0.00,6,0,6,0.00
2013-5-23,71.2,49.1,28.9,36.8,25.2,15.1,59,41,26,0.00,0.00,5,0,5,0.00
2013-5-24,73.7,54.5,36.5,40.5,31.0,21.5,57,42,30,0.00,0.00,6,0,6,0.00
2013-5-25,76.8,60.4,48.0,45.3,37.1,31.6,57,43,32,0.00,0.00,5,0,5,0.00
2013-5-26,73.0,55.1,44.9,49.2,38.9,29.7,64,55,42,0.00,0.00,3,0,3,0.00
2013-5-27,72.6,56.8,46.0,47.6,42.1,37.2,76,60,39,0.00,0.00,2,0,2,0.00
2013-5-28,63.6,54.9,50.7,49.8,44.8,41.6,76,69,56,0.00,0.00,5,0,5,0.00
2013-5-29,64.2,51.3,46.0,49.0,41.9,37.3,75,71,57,0.00,0.00,6,0,6,0.00
2013-5-30,66.9,51.6,40.8,48.0,39.5,33.4,79,64,47,0.00,0.00,4,0,4,0.00
2013-5-31,76.8,56.2,38.4,49.0,38.5,29.1,74,54,36,0.00,0.00,3,0,3,0.00
2013-6-1,83.4,60.8,40.6,50.8,39.8,28.9,66,48,31,0.00,0.00,0,0,0,0.00
2013-6-2,81.5,62.9,48.9,52.4,41.3,36.0,64,47,30,0.00,0.00,7,0,7,0.00
2013-6-3,82.0,62.2,44.6,49.6,39.3,31.0,62,45,31,0.00,0.00,3,0,3,0.00
2013-6-4,87.0,64.3,44.2,51.6,41.2,31.4,64,45,29,0.00,0.00,4,0,4,0.00
2013-6-5,91.0,67.6,47.8,55.5,43.8,34.2,63,44,28,0.00,0.00,1,0,1,0.00
2013-6-6,90.3,67.9,50.9,58.7,46.8,37.5,65,48,32,0.00,0.00,2,0,2,0.00
2013-6-7,96.0,72.2,53.4,58.0,47.6,39.9,64,44,26,0.00,0.00,6,0,6,0.00
2013-6-8,93.7,71.7,52.8,53.9,45.4,37.9,60,42,25,0.00,0.00,6,0,6,0.00
2013-6-9,94.6,71.3,51.4,58.4,46.9,36.6,60,44,29,0.00,0.00,6,0,6,0.00
2013-6-10,96.9,74.2,55.2,58.8,48.2,40.6,61,42,27,0.00,0.00,0,0,0,0.00
2013-6-11,89.2,70.3,55.0,54.7,45.6,38.7,59,43,28,0.00,0.00,5,0,5,0.00
2013-6-12,89.7,68.0,49.2,52.3,42.4,35.5,62,42,25,0.00,0.00,7,0,7,0.00
2013-6-13,75.0,62.8,53.4,48.2,41.3,37.4,63,46,33,0.00,0.00,12,0,12,0.00
2013-6-14,72.8,56.9,45.8,47.1,40.1,35.6,69,55,38,0.00,0.00,0,0,0,0.00
2013-6-15,85.8,61.2,40.6,50.7,40.2,29.7,68,49,28,0.00,0.00,0,0,0,0.00
2013-6-16,93.7,67.5,46.0,55.0,43.1,33.3,64,44,25,0.00,0.00,0,0,0,0.00
2013-6-17,95.3,69.7,49.6,56.4,43.8,34.7,60,42,24,0.00,0.00,5,0,5,0.00
2013-6-18,92.1,69.1,50.7,54.2,43.9,35.5,59,42,26,0.00,0.00,5,0,5,0.00
2013-6-19,66.9,57.1,48.7,46.1,43.1,39.3,70,60,40,0.00,0.00,11,0,11,0.00
2013-6-20,65.3,53.9,46.5,46.1,41.2,36.2,74,63,46,0.00,0.00,0,0,0,0.00
2013-6-21,66.0,53.5,39.9,45.4,38.9,30.3,71,58,45,0.00,0.00,1,0,1,0.00
2013-6-22,75.9,59.6,44.7,51.1,42.9,34.8,71,55,41,0.00,0.00,3,0,3,0.00
2013-6-23,82.5,62.9,44.7,55.9,45.2,34.2,70,54,36,0.00,0.00,0,0,0,0.00
2013-6-24,69.4,61.6,57.0,56.5,51.3,46.7,77,69,54,0.00,0.00,2,0,2,0.00
2013-6-25,63.1,59.0,54.3,56.1,52.2,47.5,80,78,76,0.00,0.00,0,0,0,0.00
2013-6-26,81.3,66.8,57.5,63.5,56.7,52.4,85,71,52,0.00,0.00,2,0,2,0.00
2013-6-27,91.9,65.2,54.6,65.4,53.7,46.8,79,68,41,0.00,0.00,0,0,0,0.00
2013-7-13,94.4,81.8,64.0,64.3,48.3,39.8,41,32,27,0.00,0.00,3,0,3,0.00
2013-7-14,99.5,72.7,51.6,57.6,44.8,35.3,59,39,23,0.00,0.00,0,0,0,0.00
2013-7-15,103.6,75.5,53.2,57.8,45.9,35.1,55,37,22,0.00,0.00,4,0,4,0.00
2013-7-16,103.8,74.9,58.8,64.9,53.3,40.2,68,49,28,0.00,0.00,14,0,14,0.00
2013-7-17,99.1,76.0,61.1,66.1,56.0,43.3,79,54,28,0.00,0.00,3,0,3,0.00
2013-7-18,100.5,74.6,53.9,61.1,48.3,40.1,63,42,23,0.00,0.00,3,0,3,0.00
2013-7-19,103.8,76.3,54.5,58.7,47.6,39.2,60,39,22,0.00,0.00,7,0,7,0.00
2013-7-20,104.5,77.4,57.2,59.0,47.2,39.0,57,37,20,0.00,0.00,6,0,6,0.00
2013-7-21,103.1,75.3,53.7,56.1,43.4,35.5,53,35,19,0.00,0.00,5,0,5,0.00
2013-7-22,102.9,74.5,51.6,54.7,40.7,30.9,49,32,17,0.00,0.00,3,0,3,0.00
2013-7-23,104.7,75.4,51.9,54.5,42.7,31.7,49,33,19,0.00,0.00,0,0,0,0.00
2013-7-24,97.5,75.0,57.9,58.1,45.6,36.5,51,36,24,0.00,0.00,4,0,4,0.00
2013-7-25,100.7,76.5,58.8,59.7,49.4,41.2,56,40,23,0.00,0.00,4,0,4,0.00
2013-7-26,102.2,76.7,57.9,59.7,49.3,39.9,56,40,23,0.00,0.00,5,0,5,0.00
2013-7-27,93.5,75.6,63.8,58.7,48.6,36.5,58,40,26,0.00,0.00,1,0,1,0.00
2013-7-28,96.8,72.0,52.1,52.5,40.8,32.7,52,34,21,0.00,0.00,7,0,7,0.00
2013-7-29,90.3,69.7,49.2,50.2,39.9,30.1,51,35,20,0.00,0.00,5,0,5,0.00
2013-7-30,98.4,74.3,55.4,54.0,43.3,35.8,52,35,21,0.00,0.00,6,0,6,0.00
2013-7-31,89.4,68.8,52.5,55.0,41.8,31.0,50,38,28,0.00,0.00,0,0,0,0.00
2013-8-1,87.4,72.3,62.2,59.7,50.1,42.8,60,47,32,0.00,0.00,8,0,8,0.00
2013-8-10,94.4,85.0,69.6,55.5,48.9,40.4,38,29,25,0.00,0.00,0,0,0,0.00
2013-8-11,96.6,74.9,58.6,54.7,45.7,37.9,50,37,23,0.00,0.00,0,0,0,0.00
2013-8-12,100.5,76.8,58.1,55.9,46.4,38.3,52,36,22,0.00,0.00,5,0,5,0.00
2013-8-13,102.9,78.9,62.4,56.8,46.9,40.0,51,34,20,0.00,0.00,5,0,5,0.00
2013-8-14,99.1,74.5,54.6,54.8,42.7,34.0,51,34,20,0.00,0.00,10,0,10,0.00
2013-8-15,104.7,75.7,52.8,54.8,40.4,30.0,46,30,18,0.00,0.00,7,0,7,0.00
2013-8-16,103.2,76.0,54.6,54.8,41.1,31.2,46,30,19,0.00,0.00,10,0,10,0.00
2013-8-17,101.3,74.7,54.3,55.2,42.3,32.3,47,33,21,0.00,0.00,6,0,6,0.00
2013-8-18,102.7,76.4,56.1,58.6,45.4,36.1,52,35,23,0.00,0.00,7,0,7,0.00
2013-8-19,102.5,76.5,55.9,56.9,45.1,36.1,52,35,20,0.00,0.00,7,0,7,0.00
2013-8-20,102.5,75.8,55.2,57.2,43.6,33.8,49,34,21,0.00,0.00,8,0,8,0.00
2013-8-21,69.9,65.7,62.4,38.9,37.8,36.7,39,36,32,0.00,0.00,0,0,0,0.00
2013-8-24,92.1,78.8,62.2,57.1,51.4,36.8,52,39,29,0.00,0.00,0,0,0,0.00
2013-8-25,93.5,70.5,54.3,58.7,49.2,41.4,65,49,27,0.00,0.00,7,0,7,0.00
2013-8-26,91.9,69.8,53.4,56.3,47.5,40.8,66,48,29,0.00,0.00,3,0,3,0.00
2013-8-27,95.3,71.4,52.5,59.1,46.1,36.3,59,42,28,0.00,0.00,1,0,1,0.00
2013-8-28,93.7,74.6,61.1,61.0,50.6,42.6,65,45,30,0.00,0.00,2,0,2,0.00
2013-8-29,97.5,74.5,57.7,61.9,51.9,43.8,71,48,28,0.00,0.00,6,0,6,0.00
2013-8-30,96.6,71.9,54.1,53.7,44.3,37.6,58,40,23,0.00,0.00,5,0,5,0.00
2013-8-31,99.6,71.8,51.0,54.4,41.5,32.4,52,36,21,0.00,0.00,0,0,0,0.00
2013-9-1,97.1,72.1,52.8,53.8,41.4,31.7,49,34,23,0.00,0.00,3,0,3,0.00
2013-9-2,87.0,70.9,59.7,56.1,46.9,38.1,56,43,35,0.00,0.00,0,0,0,0.00
2013-9-3,77.1,67.7,61.8,62.9,55.6,50.2,76,66,56,0.00,0.00,2,0,2,0.00
2013-9-4,93.2,72.9,58.8,66.2,57.9,50.9,79,61,40,0.00,0.00,2,0,2,0.00
2013-9-5,83.4,67.1,59.7,65.7,56.7,51.8,79,70,55,0.00,0.00,11,0,11,0.00
2013-9-6,83.1,65.2,57.0,60.2,51.4,42.2,81,64,37,0.00,0.00,5,0,5,0.00
2013-9-7,86.5,62.7,46.2,55.9,44.8,36.6,71,54,34,0.00,0.00,4,0,4,0.00
2013-9-8,87.2,64.3,47.4,55.5,45.1,36.6,69,52,34,0.00,0.00,7,0,7,0.00
2013-9-9,86.7,68.1,51.2,55.3,46.5,38.6,66,48,33,0.00,0.00,7,0,7,0.00
2013-9-10,91.7,68.0,50.3,57.6,46.2,37.7,65,48,31,0.00,0.00,5,0,5,0.00
2013-9-11,95.7,69.9,51.4,58.4,46.5,38.1,64,46,27,0.00,0.00,3,0,3,0.00
2013-9-12,89.2,68.9,60.0,60.0,50.6,42.8,71,53,36,0.00,0.00,0,0,0,0.00
2013-9-13,83.8,66.2,58.2,63.4,55.2,50.0,77,68,48,0.00,0.00,0,0,0,0.00
2013-9-14,83.3,66.2,57.9,61.0,54.8,50.5,78,68,46,0.00,0.00,2,0,2,0.00
2013-9-15,89.7,70.4,59.9,61.8,54.3,48.7,74,59,38,0.00,0.00,3,0,3,0.00
2013-9-16,88.1,68.9,56.8,56.7,49.2,38.2,74,52,29,0.00,0.00,7,0,7,0.00
2013-9-17,71.7,60.2,51.4,49.7,42.6,35.8,60,53,45,0.00,0.00,2,0,2,0.00
2013-9-18,63.8,55.8,47.3,43.2,39.3,32.9,61,54,45,0.00,0.00,0,0,0,0.00
2013-9-19,75.9,52.8,36.6,45.3,35.0,26.7,71,53,32,0.00,0.00,0,0,0,0.00
2013-9-20,85.4,57.7,38.3,48.2,35.2,25.9,64,46,27,0.00,0.00,4,0,4,0.00
2013-9-21,70.3,58.3,48.9,44.5,36.6,29.7,54,45,38,0.00,0.00,0,0,0,0.00
2013-9-22,64.9,55.9,48.9,44.9,38.7,33.8,62,53,45,0.00,0.00,5,0,5,0.00
2013-9-23,68.1,56.3,47.4,45.3,39.8,35.6,68,55,43,0.00,0.00,3,0,3,0.00
2013-9-24,52.3,48.7,46.7,44.6,38.7,34.1,77,69,55,0.00,0.00,0,0,0,0.00
2013-9-25,50.9,46.8,43.7,43.7,39.8,36.9,79,77,74,0.00,0.00,0,0,0,0.00
2013-9-26,58.1,48.2,42.9,45.6,38.5,32.0,81,70,54,0.00,0.00,5,0,5,0.00
2013-9-27,57.0,45.7,33.8,40.0,33.4,25.3,75,63,51,0.00,0.00,0,0,0,0.00
2013-9-28,58.6,49.9,44.4,48.3,41.6,36.5,78,73,64,0.00,0.00,0,0,0,0.00
2013-9-29,51.8,49.6,46.9,45.4,43.7,41.4,82,80,78,0.00,0.00,5,0,5,0.00
2013-9-30,61.7,50.3,42.0,48.6,42.2,33.2,85,74,53,0.00,0.00,8,0,8,0.00
2013-10-1,55.4,44.5,38.8,44.6,36.2,31.3,79,73,66,0.00,0.00,0,0,0,0.00
2013-10-2,57.0,42.9,32.5,42.0,33.3,25.7,81,69,55,0.00,0.00,0,0,0,0.00
2013-10-3,55.4,45.5,40.2,39.0,33.6,28.4,78,64,50,0.00,0.00,9,0,9,0.00
2013-10-4,61.1,43.4,31.6,38.5,29.8,22.6,73,59,43,0.00,0.00,0,0,0,0.00
2013-10-5,62.9,43.7,31.2,42.8,31.0,22.6,73,62,46,0.00,0.00,1,0,1,0.00
2013-10-6,67.8,46.5,32.7,44.5,33.0,24.0,74,60,43,0.00,0.00,0,0,0,0.00
2013-10-7,63.6,48.1,35.9,43.8,34.3,26.7,72,60,45,0.00,0.00,0,0,0,0.00
2013-10-8,55.0,44.0,34.8,37.8,31.8,25.7,72,62,52,0.00,0.00,6,0,6,0.00
2013-10-9,62.2,43.9,32.1,43.8,32.2,24.0,77,64,51,0.00,0.00,0,0,0,0.00
2013-10-10,56.4,43.1,33.0,42.1,32.5,24.6,77,66,57,0.00,0.00,0,0,0,0.00
2013-10-11,58.4,41.8,30.5,40.1,30.1,22.5,76,64,49,0.00,0.00,4,0,4,0.00
2013-10-12,58.6,45.2,35.2,39.9,32.8,26.4,72,62,49,0.00,0.00,22,0,22,0.00
2013-10-13,60.9,46.7,35.4,41.3,33.3,26.6,75,60,47,0.00,0.00,6,0,6,0.00
2013-10-14,58.8,43.9,32.3,38.8,29.9,22.9,73,58,46,0.00,0.00,6,0,6,0.00
2013-10-15,58.8,41.5,30.0,39.1,28.0,19.9,70,59,47,0.00,0.00,4,0,4,0.00
2013-10-16,55.7,40.3,30.0,38.8,28.5,21.0,74,63,51,0.00,0.00,0,0,0,0.00
2013-10-17,59.9,42.3,30.0,38.6,29.1,21.0,73,60,45,0.00,0.00,5,0,5,0.00
2013-10-18,57.7,41.3,29.8,38.1,28.2,20.1,71,60,48,0.00,0.00,0,0,0,0.00
2013-10-19,58.1,41.0,29.8,41.0,29.2,20.8,74,63,52,0.00,0.00,0,0,0,0.00
2013-10-20,63.3,44.9,31.6,41.9,31.2,23.0,74,60,45,0.00,0.00,6,0,6,0.00
2013-10-21,62.2,45.5,33.6,42.4,32.2,23.3,71,60,48,0.00,0.00,0,0,0,0.00
2013-10-22,61.8,44.8,33.6,44.3,33.4,25.1,75,65,52,0.00,0.00,0,0,0,0.00
2013-10-23,62.0,44.5,32.5,44.6,33.4,24.3,77,65,53,0.00,0.00,0,0,0,0.00
2013-10-24,61.8,44.7,33.0,44.9,33.5,24.9,77,65,54,0.00,0.00,0,0,0,0.00
2013-10-25,61.1,44.2,32.7,44.1,33.0,24.4,77,65,53,0.00,0.00,0,0,0,0.00
2013-10-26,59.9,43.4,32.7,43.1,31.9,24.0,75,64,53,0.00,0.00,0,0,0,0.00
2013-10-27,54.1,41.4,30.7,41.2,30.8,22.1,74,66,61,0.00,0.00,0,0,0,0.00
2013-10-28,55.2,45.5,39.9,40.2,34.6,31.0,77,66,54,0.00,0.00,2,0,2,0.00
2013-10-29,52.8,42.0,34.8,39.3,31.4,26.0,73,66,57,0.00,0.00,0,0,0,0.00
2013-10-30,44.9,37.2,30.9,35.0,28.5,22.6,75,71,66,0.00,0.00,0,0,0,0.00
2013-10-31,39.7,35.4,29.4,33.2,28.3,21.8,79,75,70,0.00,0.00,0,0,0,0.00
2013-11-1,48.2,40.3,35.9,40.3,33.9,29.0,81,78,74,0.00,0.00,0,0,0,0.00
2013-11-2,42.9,36.8,30.7,37.8,30.9,24.6,82,79,76,0.00,0.00,2,0,2,0.00
2013-11-3,40.8,35.4,32.7,33.9,29.2,26.9,81,78,73,0.00,0.00,2,0,2,0.00
2013-11-4,39.3,33.9,28.7,31.7,27.0,21.4,79,76,69,0.00,0.00,0,0,0,0.00
2013-11-5,30.7,27.7,22.4,24.5,21.0,15.4,79,76,74,0.00,0.00,0,0,0,0.00
2013-11-6,41.7,35.2,30.2,35.3,29.5,24.4,81,80,78,0.00,0.00,0,0,0,0.00
2013-11-7,42.9,38.8,35.6,38.7,34.1,30.3,85,83,81,0.00,0.00,0,0,0,0.00
2013-11-8,44.0,38.6,34.7,38.9,33.8,30.2,85,83,81,0.00,0.00,0,0,0,0.00
2013-11-9,46.2,37.4,33.0,40.4,32.0,28.0,84,81,78,0.00,0.00,22,0,22,0.00
2013-11-10,50.9,39.4,31.6,42.9,33.1,26.2,83,78,73,0.00,0.00,0,0,0,0.00
2013-11-11,49.1,38.6,31.1,41.2,32.2,25.0,83,78,75,0.00,0.00,0,0,0,0.00
2013-11-12,46.9,38.6,31.1,39.4,32.4,25.5,83,78,75,0.00,0.00,0,0,0,0.00
2013-11-13,53.2,42.1,34.8,43.7,35.4,27.6,84,77,67,0.00,0.00,0,0,0,0.00
2013-11-14,42.9,35.0,29.8,35.7,28.5,23.7,81,77,75,0.00,0.00,0,0,0,0.00
2013-11-15,38.3,32.9,30.0,32.0,26.9,24.1,80,78,76,0.00,0.00,0,0,0,0.00
2013-11-16,39.5,34.1,30.3,34.0,28.6,24.8,83,80,77,0.00,0.00,3,0,3,0.00
2013-11-17,42.4,33.9,30.3,35.7,28.1,24.5,82,79,75,0.00,0.00,0,0,0,0.00
2013-11-18,37.2,31.5,25.8,30.6,25.5,19.9,80,78,77,0.00,0.00,0,0,0,0.00
2013-11-19,35.7,34.4,33.0,31.0,29.4,27.5,84,82,80,0.00,0.00,0,0,0,0.00
2013-11-20,41.5,36.2,31.1,34.8,29.3,20.6,85,77,64,0.00,0.00,8,0,8,0.00
2013-11-21,40.8,31.6,26.6,23.9,19.0,15.9,65,60,50,0.00,0.00,3,0,3,0.00
2013-11-22,36.3,26.8,20.3,23.8,16.8,11.6,70,66,59,0.00,0.00,0,0,0,0.00
2013-11-23,38.1,27.4,20.3,27.1,18.6,12.1,75,69,64,0.00,0.00,0,0,0,0.00
2013-11-24,39.0,28.6,21.3,28.5,20.1,13.7,76,70,65,0.00,0.00,0,0,0,0.00
2013-11-25,40.6,30.5,24.0,30.5,22.2,16.6,76,71,66,0.00,0.00,0,0,0,0.00
2013-11-26,41.5,31.3,24.6,32.8,23.8,17.7,79,74,70,0.00,0.00,0,0,0,0.00
2013-11-27,41.5,31.8,25.3,32.6,24.4,18.4,79,74,70,0.00,0.00,0,0,0,0.00
2013-11-28,40.4,32.3,26.9,32.1,25.1,20.3,79,75,71,0.00,0.00,0,0,0,0.00
2013-11-29,40.1,31.1,24.4,32.0,24.1,17.9,80,75,72,0.00,0.00,0,0,0,0.00
2013-11-30,37.0,33.7,29.4,30.4,27.5,23.1,80,78,75,0.00,0.00,0,0,0,0.00
2013-12-1,39.3,36.4,34.8,35.2,31.5,29.5,85,82,80,0.00,0.00,2,0,2,0.00
2013-12-2,44.2,38.3,28.0,40.4,33.6,21.7,87,83,76,0.00,0.00,10,0,10,0.00
2013-12-3,32.5,26.6,22.2,23.3,19.0,12.5,78,73,65,0.00,0.00,5,0,5,0.00
2013-12-4,24.4,20.9,15.9,12.5,10.3,6.5,67,63,58,0.00,0.00,0,0,0,0.00
2013-12-5,24.2,20.0,14.5,13.6,10.2,4.8,70,66,61,0.00,0.00,0,0,0,0.00
2013-12-6,22.2,16.0,9.3,11.5,6.6,0.5,69,66,63,0.00,0.00,0,0,0,0.00
2013-12-7,27.6,22.0,14.9,18.1,12.5,3.4,73,67,59,0.00,0.00,4,0,7,0.00
2013-12-8,19.2,11.7,5.1,7.8,1.5,-4.5,66,63,60,0.00,0.00,0,0,0,0.00
2013-12-9,22.8,12.9,4.8,10.9,2.7,-4.8,67,63,59,0.00,0.00,0,0,0,0.00
2013-12-10,29.3,21.8,15.9,17.1,11.4,6.1,68,64,58,0.00,0.00,0,0,0,0.00
2013-12-11,28.4,19.3,11.6,17.7,9.9,2.7,70,67,64,0.00,0.00,0,0,0,0.00
2013-12-12,30.0,20.1,12.9,20.5,11.5,4.6,73,69,67,0.00,0.00,0,0,0,0.00
2013-12-13,37.2,28.2,20.4,28.4,20.4,12.2,75,72,69,0.00,0.00,0,0,0,0.00
2013-12-14,40.2,34.1,31.2,31.9,26.7,23.9,77,74,71,0.00,0.00,0,0,0,0.00
2013-12-15,37.9,31.9,28.0,30.3,24.9,21.4,78,75,72,0.00,0.00,0,0,0,0.00
2013-12-16,35.2,27.5,20.8,28.0,20.6,13.7,79,75,73,0.00,0.00,0,0,0,0.00
2013-12-17,34.3,26.2,20.1,26.9,19.2,13.3,78,75,72,0.00,0.00,0,0,0,0.00
2013-12-18,34.7,26.6,19.4,26.5,19.4,12.6,77,74,71,0.00,0.00,22,0,22,0.00
2013-12-19,38.3,30.9,25.1,23.2,19.9,13.5,77,64,52,0.00,0.00,8,0,8,0.00
2013-12-20,25.5,22.0,16.3,17.2,12.9,7.2,74,68,60,0.00,0.00,0,0,0,0.00
2013-12-21,33.0,26.7,20.1,25.6,19.8,12.9,77,75,73,0.00,0.00,0,0,0,0.00
2013-12-22,38.4,33.2,29.6,31.5,26.9,23.2,79,78,76,0.00,0.00,0,0,0,0.00
2013-12-23,34.3,34.1,33.9,28.7,28.6,28.4,80,80,79,0.00,0.00,0,0,0,0.00
2013-12-27,34.3,30.0,26.6,28.4,23.6,21.3,80,77,75,0.00,0.00,0,0,0,0.00
2013-12-28,39.7,27.9,21.9,29.2,20.6,16.0,81,74,65,0.00,0.00,0,0,0,0.00
2013-12-29,33.2,25.0,17.9,24.4,17.3,10.9,76,72,69,0.00,0.00,0,0,0,0.00
2013-12-30,34.3,27.5,21.0,25.1,19.8,14.1,76,73,68,0.00,0.00,0,0,0,0.00
2013-12-31,37.0,32.9,30.2,28.8,25.4,23.1,76,73,72,0.00,0.00,0,0,0,0.00
2014-1-1,36.5,28.8,24.6,28.9,21.9,18.1,78,75,72,0.00,0.00,0,0,0,0.00
2014-1-2,37.2,28.7,23.0,28.7,21.5,16.8,78,74,69,0.00,0.00,0,0,0,0.00